GFSNW_925_rhum_144.txt.gz
RH
65 58 54 48 48 50 66 78 64 58 52 73 85 74 52 47 50 47 46 44 46 39 38 43 48 51 45 48 45 42 48 65 80 44 52 50 47 43 49 50 34 56 56 49
70 60 56 53 49 50 55 85 75 62 57 72 80 54 57 56 51 52 51 47 47 40 45 45 55 59 52 52 56 50 43 52 72 43 45 51 55 55 47 49 60 55 46 29
76 64 57 55 48 46 54 78 72 71 70 66 59 54 56 55 52 51 47 46 44 40 41 45 59 62 55 51 56 52 48 52 43 39 36 55 52 59 57 52 79 56 52 32
80 74 61 56 54 47 62 78 56 64 61 51 47 48 54 59 53 51 48 46 46 44 46 44 57 64 63 57 58 55 54 42 61 51 48 49 45 48 58 65 56 48 36 46
87 71 62 60 56 55 61 66 63 65 60 50 41 49 51 54 50 49 50 48 43 42 43 41 52 61 61 56 67 58 63 45 64 70 51 60 62 57 53 59 55 58 50 55
98 81 64 60 55 59 67 68 61 60 55 50 44 49 44 46 48 47 45 42 47 46 51 48 47 48 54 53 66 72 70 74 79 50 68 58 39 48 54 55 50 45 55 41
99 87 74 64 58 54 61 62 67 66 60 51 42 43 42 51 48 50 48 46 44 49 42 41 43 45 47 55 64 65 77 74 80 86 52 38 26 37 38 49 46 49 44 44
94 92 80 68 61 60 55 60 72 79 73 53 43 48 53 51 50 50 50 56 56 53 48 53 51 57 46 60 70 64 68 74 80 79 85 50 36 42 41 47 40 47 46 49
89 95 87 72 64 60 63 63 66 79 79 65 43 48 48 59 57 54 62 58 55 55 62 54 43 49 47 63 68 68 75 73 69 83 82 53 31 36 35 34 46 45 47 53
84 94 94 83 68 62 63 64 63 76 81 74 47 48 52 54 57 61 65 64 61 57 70 62 62 62 46 56 71 83 85 83 90 82 84 70 48 36 35 39 39 47 49 51
82 84 96 94 80 68 64 69 61 63 86 79 65 62 51 53 60 62 64 64 70 75 66 65 67 69 53 51 61 78 82 90 96 86 87 80 45 41 41 40 50 48 49 50
78 84 86 93 91 77 69 77 66 62 67 70 73 67 66 65 63 66 73 60 73 68 73 81 74 64 64 54 50 64 63 58 73 73 66 45 47 40 43 49 50 50 54 54
76 84 86 88 91 86 74 68 65 75 85 79 84 82 69 67 62 64 70 75 62 70 70 76 72 65 66 64 67 54 52 56 61 60 48 54 49 46 45 46 50 54 55 58
74 80 86 90 85 89 81 77 69 67 81 80 73 69 68 67 66 66 65 64 68 75 80 74 76 74 62 71 63 63 51 55 57 61 52 46 49 50 51 54 55 52 52 50
76 76 88 91 90 86 85 78 73 72 71 77 87 77 72 71 68 70 69 66 77 83 79 92 88 87 82 82 79 83 55 58 60 52 47 46 45 51 52 53 52 51 46 40
80 77 84 94 96 95 85 90 84 75 77 91 79 84 78 77 74 75 78 77 85 87 86 88 90 81 80 92 92 65 57 54 50 48 48 51 51 53 48 49 48 44 40 32
79 78 81 98 99 98 83 83 77 80 78 89 81 94 84 77 77 84 86 84 90 87 87 93 90 85 86 94 96 57 59 60 54 54 53 52 48 50 45 41 37 39 33 34
82 80 80 100 100 100 90 75 76 72 80 88 91 87 92 77 90 92 89 92 92 90 90 93 95 89 92 98 76 69 66 67 57 55 49 50 48 43 40 37 38 37 38 38
91 84 96 100 99 99 92 84 80 79 78 92 98 84 79 86 93 90 90 91 97 90 98 97 92 95 98 82 76 73 70 69 64 51 44 49 46 44 42 39 38 36 39 40
100 100 99 100 100 97 90 92 94 96 92 97 97 91 98 90 94 94 94 92 96 100 91 92 99 95 74 68 63 62 63 64 57 65 53 52 50 47 42 38 39 39 42 43
99 99 98 100 99 90 96 99 99 99 99 98 96 93 97 87 95 95 92 98 99 97 90 97 94 96 75 65 72 66 66 68 52 45 46 45 46 50 42 39 39 41 42 48
91 93 98 98 100 99 98 98 98 98 97 98 99 96 90 92 89 96 99 97 98 98 94 97 92 85 70 74 71 58 55 50 48 42 46 40 38 37 38 38 40 37 37 39
83 92 99 99 99 97 97 97 98 100 96 99 98 99 95 95 93 98 98 98 95 93 91 90 89 77 70 74 66 55 46 43 42 41 37 35 33 32 38 42 39 40 43 42
99 99 97 97 97 95 92 89 91 90 96 94 97 98 95 95 98 97 97 88 95 98 95 95 91 75 68 70 72 51 45 39 37 49 38 39 42 46 45 46 45 48 52 49
99 99 97 98 94 99 99 97 98 100 89 90 97 98 94 100 97 97 95 98 94 86 90 90 87 71 63 59 63 62 56 55 66 48 53 56 59 65 63 52 53 48 53 55
98 98 97 94 98 100 99 100 98 97 89 94 93 98 100 99 90 98 88 94 93 85 93 90 78 66 58 57 59 59 54 53 51 45 43 45 50 53 50 47 51 50 54 60
98 97 92 94 93 94 95 92 98 92 84 99 97 100 95 95 100 98 96 96 90 94 95 93 74 69 69 65 60 56 52 52 49 47 46 47 43 52 59 74 56 57 58 65

GFSNW_925_rhum_150.txt.gz
RH
70 58 58 55 45 42 52 73 53 60 54 70 88 78 56 50 52 52 49 47 46 40 42 45 51 47 50 58 53 45 52 55 72 43 57 56 49 48 52 48 36 60 50 49
79 59 59 56 54 50 55 80 79 59 46 72 81 57 58 64 62 59 51 52 49 45 51 45 59 58 56 63 56 45 40 45 62 40 42 52 62 62 48 52 58 63 47 30
99 67 60 58 55 54 59 71 69 64 73 69 55 48 53 52 54 54 53 50 45 42 47 56 61 60 62 61 58 61 46 55 34 33 30 50 62 60 59 47 77 48 47 34
99 86 63 58 56 59 64 71 67 71 63 58 54 49 53 49 45 53 50 48 51 45 44 48 59 65 60 60 65 58 43 39 58 51 46 53 50 45 67 62 49 43 30 42
92 97 76 63 57 54 55 57 60 67 67 58 43 55 54 48 52 49 48 46 48 45 45 41 40 59 58 48 61 59 64 48 62 62 60 59 64 61 60 66 62 66 54 55
89 98 84 69 60 57 60 75 67 58 60 54 47 48 48 48 48 50 50 46 49 47 49 49 52 56 60 56 57 66 63 66 67 40 66 52 35 45 58 55 61 51 56 35
87 90 91 82 67 64 60 63 67 65 60 55 44 45 46 50 47 44 52 47 42 51 50 49 44 50 70 70 78 71 72 68 76 81 46 38 21 32 36 51 49 54 48 44
81 89 92 88 75 68 63 63 72 76 67 61 48 49 53 54 52 53 53 59 61 56 44 48 46 52 44 65 78 72 71 74 81 78 76 44 29 40 42 40 36 40 48 45
79 82 88 91 87 74 71 66 70 76 71 55 45 53 54 61 60 58 64 60 60 54 58 49 46 52 43 53 69 74 77 74 68 81 78 51 30 37 38 38 43 38 48 49
80 81 84 88 90 80 72 70 69 77 74 70 48 52 56 59 60 64 68 63 62 55 64 54 56 57 48 55 64 88 86 85 89 82 84 70 48 38 36 40 35 42 46 51
80 77 80 84 89 89 75 75 70 71 83 75 68 56 56 60 63 63 67 62 69 73 60 62 62 60 59 56 58 80 82 92 96 89 91 84 50 43 40 37 45 46 48 54
80 78 76 79 83 92 86 78 80 70 71 71 79 71 66 62 61 66 77 62 72 68 70 72 75 70 72 57 56 68 63 61 75 75 69 49 48 42 38 47 49 45 48 51
84 82 76 76 77 86 91 80 74 73 85 80 84 81 74 69 65 65 69 80 69 71 67 78 77 68 68 67 68 54 59 61 61 59 42 56 54 53 52 50 53 47 52 54
91 85 79 77 80 84 86 89 80 68 78 82 74 71 71 70 68 66 68 68 75 78 81 79 82 76 63 70 62 58 52 62 62 69 56 52 49 54 53 53 55 52 54 57
100 93 84 74 86 92 89 84 84 76 72 83 82 82 76 73 69 70 72 70 80 85 82 92 82 82 79 88 84 86 63 58 65 65 50 49 50 46 48 54 56 60 60 57
100 100 91 78 89 96 95 91 86 86 76 90 90 82 81 80 75 77 80 80 88 87 83 85 87 83 83 92 94 71 60 54 53 60 62 59 58 59 53 56 56 56 53 47
99 100 100 91 88 100 86 88 72 88 74 82 86 89 85 81 81 88 90 87 92 88 87 92 90 88 90 95 98 65 58 63 66 63 60 62 52 56 50 47 49 45 36 35
92 99 100 99 96 100 99 87 70 81 75 82 92 88 88 80 92 93 93 94 92 92 90 95 97 92 95 99 84 74 70 71 69 62 60 58 55 47 43 46 41 42 40 37
98 91 100 100 100 100 94 93 76 81 77 93 96 86 81 88 96 94 93 92 97 93 96 97 94 94 97 82 79 74 70 68 68 70 71 58 56 50 44 44 41 38 37 34
97 96 100 100 100 95 94 98 98 99 94 99 95 90 95 93 96 97 95 96 98 96 87 94 99 90 80 80 75 76 71 73 78 88 78 59 56 54 45 43 37 32 32 36
94 99 99 100 100 95 98 100 100 100 100 98 96 82 97 92 95 94 91 97 95 100 89 96 92 91 85 73 73 73 71 63 68 81 74 57 56 58 47 42 36 34 35 38
86 92 98 98 100 100 99 98 100 99 94 99 98 95 87 95 90 94 98 99 98 99 92 89 92 87 72 74 73 65 56 52 48 46 46 46 49 45 40 36 39 38 39 40
92 93 99 100 99 98 98 97 99 99 99 98 98 99 94 99 94 97 98 99 94 94 95 92 90 75 73 74 76 52 45 44 41 40 37 35 36 35 37 43 44 47 48 44
100 98 98 98 97 96 95 92 91 90 96 96 93 99 94 93 96 95 96 90 88 95 98 94 90 79 71 74 74 53 43 38 36 51 46 46 45 45 45 44 42 48 53 47
99 100 97 97 91 99 98 97 98 100 86 88 97 97 93 100 98 91 96 99 96 93 90 89 90 75 75 74 69 63 58 59 76 56 57 57 60 61 56 43 45 48 53 56
100 99 99 95 97 100 98 98 94 97 82 89 89 98 97 100 97 97 96 95 95 84 91 90 79 76 68 55 54 54 53 54 53 52 54 53 51 54 55 54 48 46 52 54
99 97 97 94 97 96 98 93 90 77 74 92 96 90 81 96 100 100 93 93 88 88 92 92 74 65 56 58 59 59 57 60 59 60 57 56 51 59 62 70 47 49 51 53

GFSNW_925_rhum_153.txt.gz
RH
98 76 66 56 53 52 51 67 60 56 51 69 87 74 60 54 55 56 50 48 44 43 48 56 54 51 60 65 59 48 54 52 67 44 59 57 51 46 43 38 32 58 45 41
100 91 70 59 57 58 62 78 76 52 42 71 80 58 58 63 59 58 54 56 50 47 50 48 58 60 57 64 60 54 41 42 60 39 41 53 63 60 49 50 56 58 41 24
90 96 79 62 58 62 61 63 65 64 74 70 55 46 51 52 54 56 53 50 45 43 51 60 60 59 62 63 62 60 45 55 32 30 29 52 59 63 55 46 65 44 45 30
89 82 84 66 59 54 56 74 68 71 59 59 57 49 50 44 43 51 51 47 49 42 43 45 62 65 58 60 65 58 41 37 57 46 45 51 50 46 69 56 48 36 28 37
88 85 84 74 59 51 53 61 58 67 70 62 42 52 56 45 54 47 46 47 50 46 42 37 41 57 54 43 58 59 57 54 58 54 56 58 61 58 59 65 62 63 57 52
86 89 85 81 59 53 58 79 69 59 63 55 45 48 49 48 46 52 52 47 51 49 52 50 55 62 70 58 54 65 58 64 59 34 60 51 31 37 62 58 61 57 54 31
82 88 88 84 72 61 61 69 68 66 60 57 44 46 47 50 48 43 54 48 42 53 58 53 46 62 75 76 81 70 66 65 72 71 39 34 20 29 36 48 46 56 50 45
78 83 88 87 80 67 61 65 73 78 66 66 51 49 54 55 54 57 54 63 64 57 43 46 46 50 46 69 80 77 72 68 81 70 70 41 32 41 42 36 34 42 49 45
80 79 84 87 87 74 66 65 68 78 73 50 48 55 54 60 60 58 65 62 62 51 57 48 46 51 41 48 66 75 75 73 64 74 64 46 32 36 39 38 39 33 46 47
80 79 81 85 86 84 71 70 67 74 77 69 49 55 56 60 61 64 69 64 62 54 61 52 54 57 47 50 58 84 87 87 84 77 78 65 47 38 41 36 34 35 45 45
80 81 78 83 84 89 79 75 71 67 82 74 69 58 56 62 65 63 66 65 70 74 61 62 63 59 57 55 56 77 77 91 94 88 89 77 49 45 38 34 39 41 44 47
81 82 79 80 81 84 90 77 81 73 70 69 78 72 66 60 61 68 77 61 70 69 72 74 74 69 76 62 57 67 64 62 72 74 66 50 49 42 38 43 46 44 46 48
87 84 81 76 82 79 86 87 78 75 85 81 83 84 76 69 64 62 69 81 72 70 67 75 74 66 72 70 71 55 59 62 63 55 42 58 56 54 52 47 52 53 53 53
100 91 88 80 77 82 78 85 84 73 79 84 74 73 73 72 69 67 67 67 77 77 83 80 81 75 65 72 63 58 52 64 64 69 59 51 47 52 50 50 54 59 59 56
100 100 96 88 79 87 89 86 78 83 72 84 83 82 77 74 72 72 73 73 82 87 84 92 84 83 78 89 85 86 67 63 66 63 51 51 52 49 53 57 60 58 61 56
99 100 100 98 87 94 99 94 88 87 82 90 93 78 82 81 77 79 81 81 87 86 83 86 86 82 82 92 94 72 65 56 53 57 62 66 64 64 56 57 58 58 60 54
99 96 100 100 98 96 87 83 69 88 81 83 90 89 84 83 85 90 91 88 91 87 88 91 89 88 91 94 97 66 62 61 63 64 66 66 56 59 60 53 51 47 39 39
100 99 92 99 100 100 99 82 72 88 72 80 92 90 86 82 93 93 95 95 93 92 90 96 96 94 95 98 86 77 70 73 71 69 64 66 65 62 52 46 43 40 41 41
94 92 73 100 100 100 98 92 82 84 74 94 97 90 86 89 97 94 94 93 97 93 96 97 95 92 97 84 83 72 70 69 68 72 77 78 72 65 56 46 44 41 40 36
85 87 100 99 100 97 90 99 99 100 97 99 97 92 97 93 97 98 96 95 98 98 89 96 100 86 76 80 81 81 76 69 73 90 78 66 64 63 50 48 44 40 36 36
83 99 98 100 100 100 98 100 100 99 100 99 96 83 97 93 95 97 92 95 94 100 93 95 92 91 84 78 72 72 76 69 67 73 74 79 72 65 55 45 37 34 36 40
92 93 99 99 100 100 100 98 99 98 96 99 98 92 87 92 88 92 98 98 98 97 92 91 93 86 74 77 67 63 56 55 53 50 54 48 51 54 46 41 42 39 41 42
98 97 100 99 98 98 98 96 98 99 99 98 97 99 95 99 94 98 98 100 96 95 98 93 90 76 74 77 76 53 46 43 41 41 38 39 39 38 39 45 45 47 48 45
100 100 99 98 98 95 93 92 91 92 97 95 93 99 94 96 98 97 96 91 92 98 98 95 90 80 75 80 75 52 41 39 42 59 48 47 48 49 46 43 44 49 51 48
100 100 96 98 89 98 98 97 97 99 87 89 95 96 91 98 97 96 95 97 97 94 91 88 89 78 82 82 72 61 57 57 73 56 61 60 56 58 55 48 49 49 51 49
100 100 99 95 98 100 100 98 100 96 83 92 93 96 97 97 96 97 93 93 93 85 91 90 82 84 81 74 66 58 52 52 53 54 54 53 53 57 57 52 46 45 48 52
99 98 93 95 98 98 93 93 91 84 80 91 94 97 91 96 98 98 94 94 87 89 92 94 78 72 61 54 52 51 54 57 58 58 57 60 58 60 61 71 42 47 49 53

GFSNW_925_rhum_156.txt.gz
RH
88 87 72 59 56 55 53 64 52 51 46 50 54 60 53 54 49 50 46 43 40 38 41 42 42 40 49 52 52 41 41 30 42 37 50 50 44 35 26 21 28 33 27 22
88 82 75 58 58 63 67 52 52 43 42 54 56 54 54 56 49 53 47 47 42 41 44 42 48 52 52 53 50 41 35 32 40 33 39 46 44 44 37 31 32 32 21 12
86 84 78 56 53 53 56 44 58 42 47 49 40 42 44 48 53 51 48 46 40 39 42 45 47 48 55 55 56 60 40 35 24 19 26 37 43 49 40 30 37 22 20 12
82 83 81 57 50 47 50 51 55 58 54 43 46 43 42 38 40 46 42 42 42 39 36 37 47 53 50 51 55 46 31 34 44 37 37 41 40 38 49 40 28 22 17 24
78 82 81 66 49 43 57 47 46 51 50 50 38 45 49 42 51 44 41 43 45 39 36 38 36 46 42 41 43 46 39 51 45 47 46 45 42 33 35 41 39 40 35 34
76 80 81 75 53 44 59 77 67 46 56 42 35 42 47 47 45 50 49 45 43 44 50 46 49 49 51 49 42 46 40 44 41 31 40 34 29 22 33 37 39 33 28 20
76 79 82 79 69 56 54 66 64 47 47 44 36 45 46 48 47 44 51 46 38 54 46 45 40 48 52 51 57 49 42 42 50 50 31 40 22 25 30 31 28 32 33 29
80 77 82 79 79 64 57 63 68 55 46 54 47 46 50 51 50 53 52 58 54 46 40 38 38 38 40 54 64 61 48 43 51 51 39 28 31 34 34 31 27 28 31 30
79 79 80 80 81 74 66 65 68 64 48 41 45 47 49 44 47 51 62 58 56 44 40 36 41 36 38 43 56 62 57 46 42 49 48 34 26 32 32 33 30 28 34 34
79 80 79 81 80 82 71 69 69 73 59 55 46 44 45 49 49 46 59 59 57 49 43 41 42 43 42 39 44 61 65 64 59 49 50 37 30 34 36 34 31 33 36 35
81 80 80 79 82 82 83 75 72 67 66 59 65 51 51 55 51 45 58 56 59 54 46 44 46 44 40 42 42 52 49 59 61 61 64 61 39 40 34 29 34 35 36 36
86 85 83 78 81 80 86 78 80 73 68 65 77 72 66 63 59 50 64 53 55 48 50 53 49 48 51 41 36 54 47 42 42 46 39 42 38 35 32 34 36 38 41 38
97 89 85 83 80 80 82 86 78 74 74 70 75 73 75 70 65 62 55 63 60 59 58 50 53 54 50 49 47 43 43 46 45 41 31 40 38 35 37 37 40 40 42 45
100 98 95 89 84 85 79 80 82 74 73 77 63 73 74 73 71 69 68 67 71 67 65 62 58 54 49 49 49 44 41 48 45 45 38 36 36 39 40 43 44 46 45 47
99 100 100 98 93 86 89 88 77 80 70 78 72 79 79 76 72 72 73 73 68 65 69 73 64 62 61 68 66 57 43 39 44 37 34 36 36 41 47 49 47 46 49 49
94 94 100 100 100 94 99 93 89 84 83 85 89 76 80 83 79 81 79 74 71 68 63 67 65 70 66 72 69 49 43 40 37 39 44 49 50 51 49 48 46 45 50 51
98 96 91 100 100 95 92 84 67 86 81 83 95 85 79 86 85 84 80 84 78 70 70 76 70 72 77 77 61 38 43 45 50 54 57 57 55 49 49 47 45 47 40 42
90 96 80 93 100 100 100 78 76 88 74 80 98 89 78 83 84 85 86 82 80 82 77 82 82 81 84 94 62 59 58 59 59 58 58 54 54 55 53 47 45 39 36 34
82 84 72 93 100 100 98 91 89 85 74 94 92 94 88 82 89 85 85 80 89 85 88 84 85 82 96 71 64 63 63 61 57 63 61 60 63 59 57 52 44 40 35 33
74 79 99 100 100 98 96 100 99 100 98 99 98 80 86 84 87 90 87 85 86 94 79 90 97 83 65 61 62 60 63 64 63 77 69 63 68 58 52 47 42 37 34 32
75 95 98 100 100 100 98 100 100 99 100 99 96 79 86 81 86 84 82 90 86 98 85 89 84 82 66 64 68 64 58 58 60 62 59 61 66 69 58 43 40 36 36 39
87 99 100 98 99 100 100 98 99 99 95 99 97 82 78 84 76 82 92 88 92 95 83 93 92 73 66 72 64 61 52 49 52 58 58 50 49 54 48 41 43 43 45 46
77 99 100 100 99 98 97 98 99 100 98 98 96 96 86 94 89 90 93 97 95 86 95 87 77 65 63 67 67 56 47 47 43 42 44 41 41 41 40 43 47 48 48 48
99 99 100 96 93 94 88 82 86 85 94 93 85 97 88 90 94 91 96 92 83 98 95 88 75 65 60 64 61 46 47 41 46 63 51 49 47 50 50 48 48 52 51 50
99 98 95 96 82 92 91 92 88 89 82 84 89 91 82 96 96 94 92 95 92 87 85 77 72 66 68 68 60 43 43 50 61 55 61 60 61 59 53 46 45 51 54 53
100 99 97 91 93 89 98 94 98 90 82 81 81 95 97 97 92 94 91 87 90 80 86 75 64 73 69 66 56 51 49 46 49 55 55 57 57 58 54 48 48 48 50 55
100 97 90 87 91 88 91 81 84 82 82 89 91 97 91 93 94 93 85 90 79 76 76 74 70 70 65 58 52 50 52 51 51 54 55 56 54 58 66 70 52 52 53 53